Snowfall_Accumulation
nan nan nan nan nan nan nan nan nan nan nan nan nan nan nan nan nan 0.0 0.0 0.0 0.0 nan nan 0.0 0.0 0.0 0.0 0.0 0.0 0.0 0.0 0.0 0.0 0.0 0.0 0.0 0.0 0.0 0.0 0.0 0.0 0.0 0.0 0.0 0.0
nan nan nan nan nan nan nan nan nan nan nan nan nan nan nan nan 0.0 0.0 nan nan nan nan 0.0 0.0 0.0 0.0 0.0 0.0 0.0 0.0 0.0 0.0 0.0 0.0 0.0 0.0 0.0 0.0 0.0 0.0 0.0 0.0 0.0 0.0 0.0
nan nan nan nan nan nan nan nan nan nan nan nan nan nan nan 0.0 0.0 0.0 nan nan nan 0.0 0.0 0.0 0.0 0.0 0.0 0.0 0.0 0.0 0.1 0.0 0.0 0.0 0.0 0.0 0.0 0.0 0.0 0.0 0.0 0.0 0.0 0.0 0.0
nan nan nan nan nan nan nan nan nan nan nan nan nan nan nan 0.0 0.0 0.0 nan nan nan 0.0 0.0 0.0 0.0 0.0 0.0 0.0 0.0 0.0 0.0 0.0 0.0 0.0 0.0 0.0 0.0 0.0 0.0 0.0 0.0 0.0 0.0 0.0 0.0
nan nan nan nan nan nan nan nan nan nan nan nan nan nan 0.0 0.0 0.0 0.0 nan nan 0.0 0.0 0.0 0.0 0.0 0.0 0.0 0.0 0.0 0.0 0.0 0.0 0.0 0.0 0.0 0.0 0.0 0.0 0.0 0.0 0.0 0.0 0.0 0.0 0.0
nan nan nan nan nan nan nan nan nan nan nan nan nan nan 0.0 0.0 0.0 0.0 0.0 0.0 0.0 0.0 0.0 0.0 0.0 0.0 0.0 0.0 0.0 0.0 0.0 0.0 0.0 0.0 0.0 0.0 0.0 0.0 0.0 0.0 0.0 0.0 0.0 0.0 0.0
nan nan nan nan nan nan nan nan nan nan nan nan nan 0.0 0.0 0.0 0.0 0.0 0.0 0.0 0.0 0.0 0.0 0.0 0.0 0.0 0.0 0.0 0.0 0.0 0.0 0.0 0.0 0.0 0.0 0.0 0.0 0.0 0.0 0.0 0.0 0.0 0.0 0.0 0.0
nan nan nan nan nan nan nan nan nan nan nan nan nan 0.0 0.0 0.0 0.0 0.0 0.0 0.0 0.0 0.0 0.0 0.0 0.0 0.0 0.0 0.0 0.0 0.0 0.1 0.1 0.0 0.0 0.0 0.0 0.1 0.0 0.0 0.0 0.0 0.0 0.0 0.0 0.0
nan nan nan nan nan nan nan nan nan nan nan nan 0.0 0.0 0.0 nan 0.0 0.0 0.0 0.0 0.0 0.0 0.0 0.0 0.0 0.0 0.0 0.2 0.8 0.0 0.2 0.0 0.0 0.0 0.0 0.0 0.0 0.0 0.0 0.0 0.0 0.0 0.0 0.0 0.0
nan nan nan nan nan nan nan nan nan nan 0.0 0.0 0.0 0.0 0.0 0.0 0.0 0.0 0.0 0.0 0.0 0.0 0.0 0.0 0.0 0.2 0.0 0.6 7.2 0.1 0.2 0.0 0.0 0.0 0.0 0.0 0.0 0.0 0.0 0.0 0.0 0.0 0.0 0.0 0.0
nan nan nan nan nan nan 0.0 0.0 0.0 0.0 0.0 0.0 0.0 0.0 0.0 0.0 0.0 0.0 0.0 0.0 0.0 0.0 0.0 0.0 0.4 1.5 0.1 0.1 0.2 0.3 0.9 1.1 0.0 0.0 0.0 0.1 0.0 0.0 0.0 0.0 0.0 0.0 0.0 0.0 0.0
nan nan nan nan nan nan 0.0 0.0 0.0 0.0 1.7 0.0 0.0 0.0 0.0 0.0 0.0 0.0 0.0 0.0 0.0 0.1 0.0 0.7 1.9 0.0 0.0 0.0 0.2 0.3 1.0 0.9 0.0 0.0 0.1 0.1 0.1 0.0 0.0 0.0 0.0 0.0 0.0 0.0 0.0
nan nan nan nan nan 0.0 0.0 0.0 0.0 0.0 2.2 0.0 0.0 0.0 0.0 0.0 0.0 0.0 0.0 0.0 0.1 0.3 0.3 1.8 0.2 0.0 0.0 0.0 0.1 0.6 1.4 0.6 0.6 0.0 0.0 0.2 0.6 0.0 0.0 0.0 0.0 0.0 0.0 0.0 0.0
nan nan nan nan nan 0.0 0.0 0.0 0.0 0.0 12.1 0.6 0.0 0.0 0.0 0.0 0.0 0.0 0.0 0.0 0.1 2.0 0.2 1.7 0.0 0.0 0.6 1.5 0.2 2.3 0.2 0.4 0.7 5.0 6.0 0.3 13.7 0.0 0.0 0.0 0.0 0.0 0.0 0.0 0.0
nan nan nan nan 0.0 0.0 0.0 0.0 0.0 0.0 50.4 0.0 0.0 0.0 0.0 0.2 0.0 0.0 0.0 0.0 0.8 0.2 7.6 3.7 0.5 0.6 3.4 0.5 0.0 3.2 0.1 0.2 0.9 4.1 5.1 2.3 11.8 0.0 0.0 0.0 0.0 0.0 0.0 0.0 0.0
nan nan nan 0.0 0.0 0.0 0.0 0.0 0.0 24.8 42.8 0.2 0.0 0.0 0.0 0.0 0.0 0.0 0.0 0.0 0.0 1.2 0.9 0.7 0.0 2.6 1.2 0.1 0.3 0.1 1.6 0.7 2.6 6.4 38.3 1.5 1.4 0.2 0.2 0.6 0.0 0.0 0.1 0.1 0.0
nan nan nan 0.0 0.0 0.0 0.0 0.0 36.6 62.8 0.2 0.1 0.3 0.0 0.1 0.3 0.5 1.0 1.0 3.5 10.5 22.4 8.1 1.3 0.9 0.1 0.0 6.5 3.3 6.4 11.1 34.3 38.2 45.8 16.6 0.0 0.7 0.4 0.1 0.3 0.9 1.0 0.4 0.2 0.1
nan nan nan 0.0 0.0 0.0 0.0 3.3 63.3 9.0 1.9 0.0 0.0 0.0 1.3 0.1 0.9 2.7 4.1 4.8 0.8 9.3 11.8 7.1 9.6 1.6 0.1 1.5 6.7 3.9 9.9 16.8 19.8 11.7 2.8 0.1 11.1 2.1 1.0 0.5 0.5 0.6 0.7 0.3 0.3
nan 0.0 0.0 0.0 0.0 0.0 1.3 51.7 20.4 0.8 0.2 0.2 0.7 1.6 0.7 0.2 3.1 2.0 1.9 2.5 1.8 4.9 24.1 11.9 2.7 0.1 0.3 0.6 1.1 10.1 22.4 2.9 20.0 8.8 14.8 2.0 0.5 0.2 0.2 0.2 0.3 0.7 0.6 0.6 0.5
0.0 0.0 0.0 0.0 0.0 0.2 15.4 nan 4.5 0.0 0.2 1.0 6.2 3.3 8.1 3.4 5.2 2.9 2.1 0.8 3.3 1.6 1.0 6.4 16.5 0.2 0.8 1.6 1.1 2.9 1.1 18.2 25.3 32.7 15.1 2.4 2.3 5.8 1.6 2.9 0.3 1.7 1.0 1.3 1.8
0.0 1.4 0.0 0.0 0.0 3.2 30.5 11.0 1.5 0.0 0.1 6.3 4.9 6.1 2.1 7.8 2.0 3.5 1.1 0.2 0.1 0.2 0.2 8.6 15.8 5.8 2.3 13.8 11.1 6.9 8.4 5.9 5.3 12.6 19.0 11.4 12.5 14.0 7.2 6.1 6.4 2.1 1.3 2.0 1.9
0.2 12.0 0.0 0.0 11.0 9.9 12.7 3.6 nan 0.2 0.1 0.8 0.9 2.7 6.1 5.7 6.5 2.2 1.1 0.3 0.0 0.0 6.9 2.9 12.9 18.2 10.6 5.9 2.1 2.8 5.8 2.8 15.8 10.2 8.1 12.5 13.0 10.0 10.1 10.2 5.7 2.5 1.8 1.6 1.9
4.9 0.8 0.0 0.0 30.8 15.6 3.9 3.3 0.6 1.0 1.0 5.3 3.9 1.1 3.0 8.8 18.5 1.8 0.4 0.1 0.0 0.8 7.6 9.4 17.0 18.5 12.4 8.3 4.7 11.1 3.8 5.8 3.8 5.4 10.7 16.0 12.3 6.6 9.1 8.5 6.6 6.2 2.8 2.0 1.8
3.9 13.8 3.1 0.4 0.6 7.6 7.5 5.1 5.9 1.0 1.7 0.8 2.0 0.5 6.5 7.8 2.3 6.5 0.7 0.2 0.1 0.1 nan nan 7.9 14.6 16.6 12.8 12.9 16.9 9.3 6.1 6.1 24.5 10.5 13.7 10.4 8.3 7.5 8.9 8.4 6.8 4.1 4.5 5.9
6.3 13.9 11.8 25.0 5.9 2.9 5.1 3.9 2.6 7.4 2.3 1.2 6.5 4.2 7.6 16.9 8.0 7.9 0.8 0.8 0.8 nan 1.1 6.9 12.6 7.0 7.3 9.4 14.8 17.1 12.9 9.6 16.7 15.7 17.7 14.9 14.5 12.7 12.0 11.9 13.4 12.2 10.5 8.7 9.7
6.7 7.8 9.1 8.2 1.0 2.0 2.5 4.2 0.9 1.3 6.9 5.2 7.3 2.6 6.0 13.6 4.1 13.7 2.2 1.1 1.7 2.1 3.3 4.2 10.4 6.4 8.3 10.2 12.8 13.8 9.1 7.9 5.9 7.8 10.2 11.8 14.5 15.2 15.6 14.3 14.1 14.8 13.4 16.2 15.4
0.8 1.2 8.8 nan 1.9 8.3 2.2 1.2 1.3 1.1 0.8 0.3 1.6 4.7 5.9 3.1 1.5 0.7 1.4 2.1 4.4 7.5 4.4 8.0 8.7 12.5 19.0 7.2 8.0 18.5 21.0 12.1 15.9 11.4 8.8 15.8 19.0 19.7 20.7 17.5 16.6 15.7 16.7 16.7 17.0
Water_Equivalent
nan nan nan nan nan nan nan nan nan nan nan nan nan nan nan nan nan 0.00 0.00 0.00 0.00 nan nan 0.00 0.00 0.00 0.00 0.00 0.00 0.00 0.00 0.00 0.00 0.00 0.00 0.00 0.00 0.00 0.00 0.00 0.00 0.00 0.00 0.00 0.00
nan nan nan nan nan nan nan nan nan nan nan nan nan nan nan nan 0.00 0.00 nan nan nan nan 0.00 0.00 0.00 0.00 0.00 0.00 0.00 0.00 0.00 0.00 0.00 0.00 0.00 0.00 0.00 0.00 0.00 0.00 0.00 0.00 0.00 0.00 0.00
nan nan nan nan nan nan nan nan nan nan nan nan nan nan nan 0.00 0.00 0.00 nan nan nan 0.00 0.00 0.00 0.00 0.00 0.00 0.00 0.00 0.00 0.02 0.00 0.00 0.00 0.00 0.00 0.00 0.00 0.00 0.00 0.00 0.00 0.00 0.00 0.00
nan nan nan nan nan nan nan nan nan nan nan nan nan nan nan 0.00 0.00 0.00 nan nan nan 0.00 0.00 0.00 0.00 0.00 0.00 0.00 0.00 0.00 0.00 0.00 0.00 0.00 0.00 0.00 0.00 0.00 0.00 0.00 0.00 0.00 0.00 0.00 0.00
nan nan nan nan nan nan nan nan nan nan nan nan nan nan 0.00 0.00 0.00 0.00 nan nan 0.00 0.00 0.00 0.00 0.00 0.00 0.00 0.00 0.00 0.00 0.00 0.00 0.00 0.00 0.00 0.00 0.00 0.00 0.00 0.00 0.00 0.00 0.00 0.00 0.00
nan nan nan nan nan nan nan nan nan nan nan nan nan nan 0.00 0.00 0.00 0.00 0.00 0.00 0.00 0.00 0.00 0.00 0.00 0.00 0.00 0.00 0.00 0.00 0.00 0.00 0.00 0.00 0.00 0.00 0.00 0.00 0.00 0.00 0.00 0.00 0.00 0.00 0.00
nan nan nan nan nan nan nan nan nan nan nan nan nan 0.00 0.00 0.00 0.00 0.00 0.00 0.00 0.00 0.00 0.00 0.00 0.00 0.00 0.00 0.00 0.00 0.00 0.00 0.00 0.00 0.00 0.00 0.00 0.00 0.00 0.00 0.00 0.00 0.00 0.00 0.00 0.00
nan nan nan nan nan nan nan nan nan nan nan nan nan 0.00 0.00 0.00 0.00 0.00 0.00 0.00 0.00 0.00 0.00 0.00 0.00 0.00 0.00 0.00 0.00 0.00 0.01 0.02 0.00 0.00 0.00 0.00 0.01 0.00 0.00 0.00 0.00 0.00 0.00 0.00 0.00
nan nan nan nan nan nan nan nan nan nan nan nan 0.00 0.00 0.00 nan 0.00 0.00 0.00 0.00 0.00 0.00 0.00 0.00 0.00 0.00 0.00 0.03 0.09 0.00 0.02 0.00 0.00 0.00 0.00 0.00 0.00 0.00 0.00 0.00 0.00 0.00 0.00 0.00 0.00
nan nan nan nan nan nan nan nan nan nan 0.00 0.00 0.00 0.00 0.00 0.00 0.00 0.00 0.00 0.00 0.00 0.00 0.00 0.00 0.00 0.03 0.01 0.08 0.87 0.02 0.02 0.00 0.00 0.00 0.00 0.00 0.00 0.00 0.00 0.00 0.00 0.00 0.00 0.00 0.00
nan nan nan nan nan nan 0.00 0.00 0.00 0.00 0.00 0.00 0.00 0.00 0.00 0.00 0.00 0.00 0.00 0.00 0.00 0.00 0.00 0.00 0.06 0.20 0.01 0.02 0.03 0.04 0.09 0.10 0.00 0.00 0.00 0.01 0.00 0.00 0.00 0.00 0.00 0.00 0.00 0.00 0.00
nan nan nan nan nan nan 0.00 0.00 0.00 0.00 0.26 0.00 0.00 0.00 0.00 0.00 0.00 0.00 0.00 0.00 0.00 0.03 0.00 0.12 0.26 0.00 0.00 0.00 0.02 0.05 0.12 0.11 0.00 0.00 0.01 0.01 0.01 0.00 0.00 0.00 0.00 0.00 0.00 0.00 0.00
nan nan nan nan nan 0.00 0.00 0.00 0.00 0.00 0.42 0.00 0.00 0.00 0.00 0.00 0.00 0.00 0.00 0.00 0.02 0.06 0.06 0.25 0.05 0.00 0.00 0.00 0.02 0.09 0.17 0.06 0.06 0.00 0.00 0.03 0.07 0.00 0.00 0.00 0.00 0.00 0.00 0.00 0.00
nan nan nan nan nan 0.00 0.00 0.00 0.00 0.00 2.20 0.15 0.00 0.00 0.00 0.00 0.00 0.00 0.00 0.00 0.01 0.36 0.04 0.32 0.00 0.01 0.09 0.19 0.02 0.25 0.02 0.05 0.09 0.67 0.66 0.04 1.51 0.00 0.00 0.00 0.00 0.00 0.00 0.00 0.00
nan nan nan nan 0.00 0.00 0.00 0.00 0.00 0.01 8.40 0.00 0.00 0.00 0.00 0.05 0.01 0.00 0.00 0.00 0.16 0.04 1.08 0.59 0.09 0.08 0.51 0.07 0.01 0.43 0.01 0.03 0.13 0.60 0.63 0.30 1.38 0.00 0.00 0.00 0.00 0.00 0.00 0.00 0.00
nan nan nan 0.00 0.00 0.00 0.00 0.00 0.00 5.75 8.19 0.03 0.00 0.00 0.01 0.00 0.00 0.00 0.00 0.00 0.00 0.26 0.19 0.12 0.00 0.45 0.25 0.02 0.05 0.02 0.22 0.12 0.44 0.90 5.00 0.21 0.18 0.03 0.02 0.06 0.00 0.01 0.02 0.01 0.00
nan nan nan 0.00 0.01 0.00 0.00 0.00 9.21 14.57 0.06 0.01 0.09 0.01 0.02 0.08 0.12 0.32 0.22 0.65 1.45 2.99 1.06 0.26 0.19 0.03 0.00 0.95 0.67 0.93 1.37 4.50 5.53 6.40 2.26 0.01 0.10 0.06 0.01 0.03 0.09 0.11 0.05 0.02 0.01
nan nan nan 0.00 0.00 0.00 0.00 0.62 15.43 2.76 0.49 0.00 0.00 0.00 0.23 0.03 0.16 0.53 0.82 0.71 0.15 1.43 1.57 1.06 1.71 0.28 0.02 0.23 0.90 0.57 1.17 1.83 1.78 1.30 0.43 0.01 1.44 0.28 0.10 0.05 0.07 0.07 0.10 0.04 0.03
nan 0.00 0.00 0.00 0.00 0.00 0.32 13.23 5.38 0.21 0.03 0.03 0.09 0.26 0.14 0.05 0.46 0.31 0.32 0.51 0.32 0.73 2.90 1.61 0.47 0.02 0.05 0.11 0.18 1.52 2.77 0.44 2.17 1.08 1.42 0.38 0.06 0.02 0.02 0.03 0.05 0.10 0.07 0.07 0.06
0.00 0.00 0.00 0.00 0.00 0.06 3.63 nan 1.65 0.00 0.03 0.16 0.77 0.46 1.38 0.55 0.68 0.38 0.31 0.15 0.43 0.26 0.20 1.00 1.96 0.04 0.15 0.31 0.23 0.43 0.15 2.05 3.46 3.61 1.53 0.33 0.24 0.74 0.24 0.42 0.04 0.25 0.12 0.14 0.22
0.00 0.37 0.00 0.00 0.00 0.63 8.56 3.43 0.48 0.00 0.02 1.06 0.89 0.79 0.30 1.19 0.27 0.47 0.17 0.04 0.03 0.03 0.05 1.63 2.16 0.81 0.35 2.45 1.70 0.99 1.12 0.77 0.64 1.55 2.08 1.16 1.48 2.28 0.77 0.68 0.68 0.25 0.14 0.22 0.21
0.06 3.64 0.00 0.00 3.11 3.28 3.67 1.14 nan 0.04 0.03 0.14 0.14 0.39 0.89 0.92 0.88 0.29 0.16 0.05 0.00 0.01 1.09 0.55 1.83 2.42 1.85 1.12 0.35 0.38 0.85 0.34 2.04 1.26 1.04 1.44 1.28 1.45 1.17 1.16 0.65 0.27 0.20 0.18 0.22
1.16 0.19 0.00 0.00 8.37 4.88 1.23 0.59 0.13 0.20 0.21 0.75 0.59 0.18 0.51 1.47 2.54 0.29 0.07 0.02 0.01 0.12 0.97 1.46 2.19 2.59 1.94 1.31 0.73 1.52 0.52 0.75 0.44 0.71 1.43 1.98 1.50 0.89 1.08 1.01 0.74 0.69 0.33 0.23 0.23
0.90 3.55 1.08 0.13 0.18 1.11 1.22 0.97 1.20 0.18 0.28 0.15 0.27 0.08 1.00 1.29 0.37 1.11 0.11 0.03 0.02 0.03 nan nan 1.03 1.72 1.97 1.81 1.92 1.90 1.08 0.75 0.72 3.75 1.55 1.48 1.29 1.06 0.89 1.02 0.95 0.80 0.48 0.53 0.71
1.34 3.70 4.62 7.69 1.62 0.44 0.68 0.59 0.45 1.21 0.38 0.21 0.94 0.74 1.10 2.07 1.11 1.22 0.13 0.13 0.16 nan 0.26 1.11 1.74 0.81 0.94 1.17 2.01 2.15 1.44 0.97 1.77 1.80 2.03 1.71 1.43 1.50 1.44 1.36 1.52 1.46 1.19 0.93 1.06
1.20 1.29 1.63 2.06 0.15 0.30 0.39 0.61 0.13 0.22 0.89 0.75 1.11 0.47 0.93 1.75 0.71 1.83 0.30 0.14 0.18 0.35 0.50 0.64 1.69 0.73 1.12 1.27 1.67 1.66 1.01 0.90 0.64 0.78 1.12 1.33 1.55 2.08 1.88 1.66 1.66 1.82 1.40 1.53 1.58
0.25 0.32 1.49 nan 0.34 1.34 0.42 0.17 0.18 0.18 0.10 0.03 0.21 0.66 0.81 0.53 0.27 0.12 0.23 0.32 0.60 0.93 0.58 1.00 1.15 2.39 3.85 0.82 0.85 3.00 2.35 1.31 1.75 1.35 0.97 1.59 2.83 2.88 2.75 1.95 1.99 1.79 1.73 1.77 2.13
SL_Ratio
nan nan nan nan nan nan nan nan nan nan nan nan nan nan nan nan nan nan nan nan nan nan nan nan nan nan nan nan nan nan 7.0 5.0 nan nan nan nan nan nan nan nan nan nan nan nan nan
nan nan nan nan nan nan nan nan nan nan nan nan nan nan nan nan nan nan nan nan nan nan nan nan nan nan nan nan nan nan 6.7 nan nan nan nan nan nan nan nan nan nan nan nan nan nan
nan nan nan nan nan nan nan nan nan nan nan nan nan nan nan nan nan nan nan nan nan nan nan nan nan nan nan nan nan nan 6.3 nan nan nan nan nan nan nan nan nan nan nan nan nan nan
nan nan nan nan nan nan nan nan nan nan nan nan nan nan nan nan nan nan nan nan nan nan nan nan nan nan nan nan nan nan nan nan nan nan nan 5.0 nan nan nan nan nan nan nan nan nan
nan nan nan nan nan nan nan nan nan nan nan nan nan nan nan nan nan nan nan nan nan nan nan nan nan nan nan nan nan nan nan nan nan nan nan nan nan nan nan nan nan nan nan nan nan
nan nan nan nan nan nan nan nan nan nan nan nan nan nan nan nan nan nan nan nan nan nan nan nan nan nan nan nan nan nan nan nan nan nan nan nan nan nan nan nan nan nan nan nan nan
nan nan nan nan nan nan nan nan nan nan nan nan nan nan nan nan nan nan nan nan nan nan nan nan nan nan nan nan nan nan 10.0 nan nan nan nan nan nan nan nan nan nan nan nan nan nan
nan nan nan nan nan nan nan nan nan nan nan nan nan nan nan nan nan nan nan nan nan nan nan nan nan nan nan nan nan 10.0 6.2 8.0 nan nan nan nan 9.3 nan nan nan nan nan nan nan nan
nan nan nan nan nan nan nan nan nan nan nan nan nan nan nan nan nan nan nan nan nan nan nan nan nan nan nan 7.0 8.7 nan 10.4 5.0 nan nan nan nan 6.7 nan nan nan nan nan nan nan nan
nan nan nan nan nan nan nan nan nan nan nan nan nan nan nan nan nan nan nan nan nan nan nan nan nan 7.0 7.8 8.0 8.3 7.5 10.4 10.0 9.0 nan nan nan 6.7 nan nan nan nan nan nan nan nan
nan nan nan nan nan nan nan nan nan nan nan nan nan nan nan nan nan nan nan nan nan nan nan nan 7.2 7.4 6.7 8.0 7.8 7.7 10.1 10.8 8.0 nan 10.0 9.3 10.0 nan nan nan nan nan nan nan nan
nan nan nan nan nan nan nan nan 5.0 nan 6.8 nan nan nan nan nan nan nan nan nan nan 4.0 5.0 6.0 7.4 nan nan nan 6.3 6.6 8.9 8.6 nan nan 7.6 8.9 10.0 nan nan nan nan nan nan nan nan
nan nan nan nan nan nan nan nan nan nan 5.2 nan nan nan nan nan nan nan nan 5.0 5.0 5.0 4.1 7.3 4.6 nan 5.0 7.5 6.7 6.7 8.3 9.5 10.1 10.0 5.0 6.9 7.5 nan nan nan nan nan nan nan nan
nan nan nan nan nan nan nan nan nan nan 5.5 4.3 nan nan nan nan nan nan nan 5.0 5.2 5.6 5.8 5.1 5.0 5.9 6.4 8.1 7.1 9.1 6.9 8.1 8.0 7.5 9.0 7.1 9.1 nan nan nan nan nan nan nan nan
nan nan nan nan nan nan nan nan nan 5.0 6.0 nan nan nan nan 5.1 3.3 5.0 nan 0.0 5.2 6.0 7.1 6.2 5.2 7.6 6.6 6.7 6.7 7.5 7.8 8.6 7.0 6.9 8.1 7.6 8.5 10.0 10.0 nan nan 7.5 nan nan nan
nan nan nan nan nan nan nan nan nan 4.3 5.2 4.5 nan nan 3.3 nan 3.6 nan nan nan nan 4.6 4.4 6.3 nan 5.6 4.9 5.0 6.8 6.2 7.2 6.2 5.9 7.1 7.7 7.0 7.6 5.4 6.3 10.6 11.3 8.3 7.4 6.8 7.5
nan nan nan nan 2.5 nan nan nan 4.0 4.3 3.5 5.0 3.0 4.5 3.8 4.2 3.8 3.2 4.4 5.4 7.2 7.5 7.6 5.3 4.9 4.2 5.0 6.9 4.9 6.9 8.1 7.6 6.9 7.2 7.3 4.4 6.4 6.8 9.2 9.9 9.3 9.2 7.9 7.6 7.7
nan nan nan nan nan nan nan 5.4 4.1 3.3 3.9 nan 5.0 5.0 5.5 5.1 5.6 5.2 4.9 6.7 5.0 6.5 7.5 6.7 5.6 5.8 3.9 6.6 7.5 6.9 8.5 9.2 11.1 9.0 6.5 7.1 7.7 7.5 9.7 8.7 6.8 8.2 7.3 7.6 8.2
nan nan nan nan nan nan 4.2 3.9 3.8 3.8 5.6 6.9 8.0 6.1 4.6 4.9 6.6 6.5 5.9 4.8 5.7 6.7 8.3 7.4 5.8 4.3 4.8 5.5 6.4 6.7 8.1 6.8 9.2 8.2 10.4 5.3 8.9 8.7 8.6 6.1 7.3 6.9 8.7 8.9 8.7
nan nan nan nan nan 2.7 4.2 nan 2.7 5.0 5.6 6.1 8.0 7.1 5.9 6.3 7.6 7.8 6.8 5.3 7.6 6.3 5.2 6.4 8.4 5.2 5.5 5.2 4.8 6.7 7.0 8.9 7.3 9.1 9.9 7.5 9.7 7.9 6.8 7.0 6.7 6.7 8.9 9.1 8.2
2.1 3.7 nan nan nan 5.1 3.6 3.2 3.2 nan 4.8 5.9 5.5 7.7 7.0 6.6 7.4 7.5 6.4 5.7 4.4 4.5 4.3 5.3 7.3 7.1 6.5 5.6 6.5 7.0 7.6 7.7 8.3 8.2 9.2 9.9 8.4 6.1 9.3 9.0 9.5 8.3 8.9 9.1 8.9
2.9 3.3 nan nan 3.5 3.0 3.5 3.2 nan 3.8 3.6 5.7 6.5 6.9 6.8 6.2 7.5 7.8 6.8 6.6 5.0 4.1 6.4 5.2 7.1 7.5 5.7 5.3 6.1 7.4 6.9 8.3 7.8 8.1 7.8 8.7 10.1 6.9 8.7 8.8 8.8 9.1 9.1 8.8 8.7
4.2 4.0 2.5 nan 3.7 3.2 3.2 5.6 5.0 5.2 4.7 7.1 6.6 5.9 5.9 6.0 7.3 6.0 5.8 4.1 5.8 6.1 7.8 6.4 7.8 7.2 6.4 6.4 6.4 7.3 7.2 7.8 8.6 7.5 7.5 8.0 8.2 7.4 8.4 8.4 9.0 9.0 8.6 8.5 7.9
4.3 3.9 2.8 3.3 3.5 6.9 6.1 5.2 4.9 5.4 6.0 5.5 7.2 6.6 6.5 6.1 6.1 5.9 5.8 4.9 5.3 4.3 nan nan 7.6 8.5 8.4 7.0 6.7 8.9 8.6 8.1 8.5 6.5 6.7 9.3 8.1 7.8 8.4 8.8 8.9 8.5 8.6 8.4 8.3
4.7 3.8 2.6 3.3 3.7 6.7 7.4 6.6 5.6 6.1 6.2 5.8 6.9 5.7 6.9 8.2 7.2 6.5 6.0 5.8 5.3 nan 4.2 6.2 7.2 8.7 7.8 8.0 7.4 8.0 8.9 9.8 9.4 8.7 8.7 8.7 10.2 8.5 8.4 8.8 8.8 8.3 8.8 9.4 9.1
5.6 6.0 5.6 4.0 6.5 6.6 6.3 6.9 7.1 6.0 7.7 6.9 6.6 5.5 6.5 7.8 5.8 7.5 7.3 8.1 9.2 6.0 6.7 6.6 6.2 8.8 7.4 8.0 7.6 8.3 9.1 8.8 9.3 10.1 9.1 8.9 9.4 7.3 8.3 8.6 8.5 8.1 9.5 10.5 9.8
3.3 3.6 5.9 nan 5.5 6.2 5.2 7.0 7.1 6.0 7.6 7.5 7.6 7.1 7.3 5.8 5.3 5.6 6.3 6.6 7.5 8.0 7.7 8.0 7.6 5.2 4.9 8.8 9.4 6.2 8.9 9.2 9.1 8.4 9.1 10.0 6.7 6.9 7.5 8.9 8.4 8.8 9.6 9.4 8.0